Regional Weather Roundup
Issued by NWS Charleston, SC

Current Version | Previous Version | Text Only | Print | Product List | Glossary Off
Versions: 1 2 3 4 5 6 7 8 9 10 11 12 13 14 15 16 17 18 19 20 21 22 23 24 25 26 27 28 29 30 31 32 33 34 35 36 37 38 39 40 41 42 43 44 45 46 47 48 49 50

000
ASUS42 KCHS 221112
RWRCHS

Regional Weather Roundup
National Weather Service Charleston SC
700 AM EDT SUN APR 22 2018

NOTE: "fair" indicates few or no clouds below 12,000 feet with no
significant weather and/or obstructions to visibility.

Not all stations are quality controlled. Use data with caution,
especially dewpoint observations.

SCZ027-030-031-034>040-042>050-221200-
...Southeast South Carolina...

CITY           SKY/WX    TMP DP  RH WIND       PRES   REMARKS
N Charleston   FAIR      58  55  90 E8        30.29R
Waterfront Prk NOT AVBL
Mount Pleasant PTSUNNY   57  55  94 CALM      30.30R
Johns Island   FAIR      61  57  88 NE7       30.29R
Pinopolis        N/A     55  54  94 E7        30.20R
Moncks Corner  CLOUDY    54  52  94 E5        30.30R
Summerville    PTSUNNY   54  52  94 CALM      30.30S
Beaufort MCAS  CLOUDY    63  58  83 NE7       30.27R
Beaufort Arpt  PTSUNNY   61  55  82 NE7       30.26S
Hilton Head Is MOCLDY    64  59  82 NE6       30.26S
Walterboro     CLOUDY    55  54  94 CALM      30.30R
Allendale      FAIR      57  54  88 CALM      30.28R

...Southern Midlands and Pee Dee...

CITY           SKY/WX    TMP DP  RH WIND       PRES   REMARKS
Georgetown     FAIR      55  54  94 NE5       30.31S
Kingstree      PTSUNNY   50  48  93 CALM      30.31S
Orangeburg     FAIR      55  52  89 CALM      30.30R
Barnwell         N/A     57  52  82 CALM      30.29R
Aiken          CLOUDY    54  50  87 E6        30.32S
Manning        FAIR      50  46  87 CALM      30.31R
Columbia       MOCLDY    56  52  86 NE3       30.31R
Sumter         CLOUDY    50  46  88 NE3       30.29R
Florence       FAIR      48  44  86 NE3       30.32S
Myrtle Beach   FAIR      52  48  86 NE5       30.33S
N Myrtle Beach FAIR      49  47  93 NE6       30.32S

$$

GAZ063-065-086>088-099>101-113>116-118-119-134>141-150-221200-
...Southeast Georgia...

CITY           SKY/WX    TMP DP  RH WIND       PRES   REMARKS
Savannah Arpt  FAIR      61  57  87 NE6       30.25R
Hunter AAF     FAIR      63  58  84 E6        30.22S
Fort Stewart   CLOUDY    59  57  93 NE3       30.22R
Statesboro     MOCLDY    57  57  98 E3        30.26R
Sylvania       PTSUNNY   57  55  94 E6        30.27S
Claxton        FAIR      58  56  93 CALM      30.25R

...CSRA, Central and far Southeast Georgia...

CITY           SKY/WX    TMP DP  RH WIND       PRES   REMARKS
Thomson        FAIR      56  51  85 S5        30.31F
Augusta-Bush   MOCLDY    56  52  86 CALM      30.28R
Augusta-Daniel MOCLDY    60  52  74 NE6       30.29R
Swainsboro     CLOUDY    55  54  94 E6        30.26R
Vidalia        CLOUDY    59  57  94 E7        30.24R
Eastman        PTSUNNY   63  51  65 SE3       30.24R
Hazlehurst     FAIR      60  55  84 E6        30.20S
Alma           MOCLDY    62  58  86 E5        30.20S
Waycross       MOCLDY    62  59  91 E3        30.20S
Jesup          NOT AVBL
Baxley         CLOUDY    57  57 100 E5        30.21F
Brunswick      MOCLDY    63  59  88 CALM      30.23R
Saint Simons   MOCLDY    67  62  84 E7        30.21R

$$

SCZ027-028-034-036>038-045-046-048>050-GAZ119-141-221200-
...Lake and Supplemental Coastal Observations...

STATION/POSITION TIME  TEMP    WIND        PRES    WAVE   SWELL
                       AIR SEA DIR/SP/G            HT/PER HT/PER/DIR
                 (UTC) (F)     (DEG/KT/KT) (MB)    (FT/S) (FT/S/D)
Winyah Bay       0945   60      50/  7     1026.0
Lake Murray      1020   55      80/  4/  5 1025.4S
ACE Basin NERRS  0945   60     350/  3       N/A
Fort Pulaski     1036   65 65  120/  7/ 10 1024.5R
Sapelo Island    1000   65      70/  3     1023.0

$$

ANZ835-935-AMZ111-154-330-350-352-354-370-450-454-472-221200-
...C-MAN and Buoy Observations...

STATION/POSITION TIME  TEMP    WIND        PRES    WAVE   SWELL
                       AIR SEA DIR/SP/G            HT/PER HT/PER/DIR
                 (UTC) (F)     (DEG/KT/KT) (MB)    (FT/S) (FT/S/D)
Buoy 41004       1050   67 67  100/ 12/ 17 1025.1R   5/ 6   3/140/ 6
Buoy 41008       1050   66 64   80/ 10/ 12 1023.4R   5/ 7   3/120/ 7
Folly Beach CMAN 1000   63      60/ 13/ 15 1025.4S
Capers Nearshore 1008   63 63   60/ 14/ 19 1025.1F
Fripp Nearshore  1008   64 63   70/  8/ 10 1024.3R


STATION/POSITION TIME  TEMP    WIND        PRES    WAVE   SWELL
                       AIR SEA DIR/SP/G            HT/PER HT/PER/DIR
                 (UTC) (F)     (DEG/KT/KT) (MB)    (FT/S) (FT/S/D)
5E St. Marys GA  1100      66                N/A     5/ 5
Frying Pan Buoy  1050   67 69  100/ 10/ 14 1026.6R   3/ 5   3/ 90/ 5
Buoy 41025       1050   58 74   10/ 12/ 14 1029.2R   3/ 7   2/ 60/ 7
Cape Lookout NC  1000           70/  8/  9 1028.0R
Buoy 41002       1050   65 72   60/ 14/ 17 1026.0R   4/ 8   2/100/ 8
Buoy 41010       1050   72 76   80/ 19/ 25 1022.3R   7/ 7   2/ 50/13
St Augustine FL  1100   69 67   90/ 14/ 15 1022.3R


$$




USA.gov is the U.S. government's official web portal to all federal, state and local government web resources and services.